Volver al catálogo

FALCON 9 R/B

ActivoHEO
NORAD 52818·ROCKET BODY·🇺🇸 United States

Lanzado Jun 8, 2022 desde Cape Canaveral Space Force Station

Loading…

Próximos Pases (próximas 24 horas)

TLE

ActualizadoSource: Space-Track

Época: Sep 12, 2026, 03:40 UTC

1 52818U 22061B   26255.15298183 -.00000045  00000-0  15131-3 0  9996
2 52818  18.8019 307.3411 7631729 300.7854   6.0716  1.82308929 27915

Sigue FALCON 9 R/B en tiempo real con AllMySat

Download on the App Store